Time,TemperatureF,DewpointF,PressureIn,WindDirection,WindDirectionDegrees,WindSpeedMPH,WindSpeedGustMPH,Humidity,HourlyPrecipIn,Conditions,Clouds,dailyrainin,SoftwareType,DateUTC
2013-07-16 00:01:00,69.0,69.0,-100.00,North,-999,-999.0,-999.0,100,0.00,,,-99.99,,2013-07-16 05:01:00,
2013-07-16 00:22:00,68.0,68.0,-100.00,North,-999,-999.0,-999.0,100,-99.99,,,-99.99,,2013-07-16 05:22:00,
2013-07-16 00:32:00,68.0,68.0,-100.00,North,-999,-999.0,-999.0,100,0.00,,,5.21,,2013-07-16 05:32:00,
2013-07-16 00:52:00,68.0,68.0,-100.00,North,-999,-999.0,-999.0,100,0.00,,,4.83,,2013-07-16 05:52:00,
2013-07-16 01:01:00,68.0,68.0,-100.00,North,-999,-999.0,-999.0,100,0.00,,,-99.99,,2013-07-16 06:01:00,
2013-07-16 01:22:00,68.0,68.0,-100.00,North,-999,-999.0,-999.0,100,0.00,,,4.57,,2013-07-16 06:22:00,
2013-07-16 01:31:00,68.0,68.0,-100.00,North,-999,-999.0,-999.0,100,0.00,,,4.57,,2013-07-16 06:31:00,
2013-07-16 01:43:00,68.0,68.0,-100.00,North,-999,-999.0,-999.0,100,0.00,,,4.57,,2013-07-16 06:43:00,
2013-07-16 01:52:00,68.0,68.0,-100.00,North,-999,-999.0,-999.0,100,0.00,,,4.57,,2013-07-16 06:52:00,
2013-07-16 02:01:00,69.0,69.0,-100.00,North,-999,-999.0,-999.0,100,0.00,,,4.37,,2013-07-16 07:01:00,
2013-07-16 02:22:00,69.0,69.0,-100.00,North,-999,-999.0,-999.0,100,0.00,,,4.35,,2013-07-16 07:22:00,
2013-07-16 02:32:00,69.0,69.0,-100.00,North,-999,-999.0,-999.0,100,0.00,,,4.32,,2013-07-16 07:32:00,
2013-07-16 02:52:00,69.0,69.0,-100.00,North,-999,-999.0,-999.0,100,0.00,,,4.28,,2013-07-16 07:52:00,
2013-07-16 03:01:00,69.0,69.0,-100.00,North,-999,-999.0,-999.0,100,0.00,,,4.23,,2013-07-16 08:01:00,
2013-07-16 03:11:00,69.0,69.0,-100.00,North,-999,-999.0,-999.0,100,0.00,,,4.23,,2013-07-16 08:11:00,
2013-07-16 03:22:00,69.0,69.0,-100.00,North,-999,-999.0,-999.0,100,0.00,,,4.23,,2013-07-16 08:22:00,
2013-07-16 03:32:00,69.0,69.0,-100.00,North,-999,-999.0,-999.0,100,0.00,,,4.23,,2013-07-16 08:32:00,
2013-07-16 03:52:00,70.0,70.0,-100.00,North,-999,-999.0,-999.0,100,0.00,,,4.05,,2013-07-16 08:52:00,
2013-07-16 04:01:00,70.0,70.0,-100.00,North,-999,-999.0,-999.0,100,0.00,,,4.04,,2013-07-16 09:01:00,
2013-07-16 04:22:00,70.0,70.0,-100.00,North,-999,-999.0,-999.0,100,-99.99,,,-99.99,,2013-07-16 09:22:00,
2013-07-16 04:32:00,70.0,70.0,-100.00,North,-999,-999.0,-999.0,100,0.00,,,3.90,,2013-07-16 09:32:00,
2013-07-16 04:42:00,70.0,70.0,-100.00,North,-999,-999.0,-999.0,100,0.00,,,3.90,,2013-07-16 09:42:00,
2013-07-16 04:52:00,70.0,70.0,-100.00,North,-999,-999.0,-999.0,100,0.00,,,3.90,,2013-07-16 09:52:00,
2013-07-16 05:01:00,70.0,70.0,-100.00,North,-999,-999.0,-999.0,100,0.00,,,3.87,,2013-07-16 10:01:00,
2013-07-16 05:22:00,70.0,70.0,-100.00,North,-999,-999.0,-999.0,100,0.00,,,3.78,,2013-07-16 10:22:00,
2013-07-16 05:31:00,70.0,70.0,-100.00,North,-999,-999.0,-999.0,100,0.00,,,3.48,,2013-07-16 10:31:00,
2013-07-16 05:43:00,70.0,70.0,-100.00,North,-999,-999.0,-999.0,100,0.00,,,3.48,,2013-07-16 10:43:00,
2013-07-16 05:52:00,70.0,70.0,-100.00,North,-999,-999.0,-999.0,100,0.00,,,3.48,,2013-07-16 10:52:00,
2013-07-16 06:01:00,70.0,70.0,-100.00,North,-999,-999.0,-999.0,100,0.00,,,-99.99,,2013-07-16 11:01:00,
2013-07-16 06:22:00,70.0,70.0,-100.00,North,-999,-999.0,-999.0,100,0.00,,,-99.99,,2013-07-16 11:22:00,
2013-07-16 06:32:00,70.0,70.0,-100.00,North,-999,-999.0,-999.0,100,0.00,,,2.85,,2013-07-16 11:32:00,
2013-07-16 06:52:00,70.0,70.0,-100.00,North,-999,-999.0,-999.0,100,-99.99,,,2.64,,2013-07-16 11:52:00,
2013-07-16 07:01:00,70.0,70.0,-100.00,North,-999,-999.0,-999.0,100,-99.99,,,2.64,,2013-07-16 12:01:00,
2013-07-16 07:22:00,71.0,71.0,-100.00,North,-999,-999.0,-999.0,100,0.00,,,-99.99,,2013-07-16 12:22:00,
2013-07-16 07:32:00,70.0,70.0,-100.00,North,-999,-999.0,-999.0,100,0.00,,,1.99,,2013-07-16 12:32:00,
2013-07-16 07:43:00,70.0,70.0,-100.00,North,-999,-999.0,-999.0,100,0.00,,,1.99,,2013-07-16 12:43:00,
2013-07-16 07:53:00,70.0,70.0,-100.00,North,-999,-999.0,-999.0,100,0.00,,,1.99,,2013-07-16 12:53:00,
2013-07-16 08:01:00,71.0,71.0,-100.00,North,-999,-999.0,-999.0,100,-99.99,,,-99.99,,2013-07-16 13:01:00,
2013-07-16 08:22:00,71.0,71.0,-100.00,North,-999,-999.0,-999.0,100,0.00,,,1.82,,2013-07-16 13:22:00,
2013-07-16 08:32:00,71.0,71.0,-100.00,North,-999,-999.0,-999.0,100,0.00,,,1.82,,2013-07-16 13:32:00,
2013-07-16 08:52:00,71.0,71.0,-100.00,North,-999,-999.0,-999.0,100,0.00,,,1.68,,2013-07-16 13:52:00,
2013-07-16 09:01:00,71.0,71.0,-100.00,North,-999,-999.0,-999.0,100,0.00,,,1.68,,2013-07-16 14:01:00,
2013-07-16 09:21:00,71.0,71.0,-100.00,North,-999,-999.0,-999.0,100,0.06,,,1.52,,2013-07-16 14:21:00,
2013-07-16 09:52:00,72.0,72.0,-100.00,North,-999,-999.0,-999.0,100,0.06,,,1.33,,2013-07-16 14:52:00,
2013-07-16 10:01:00,72.0,72.0,-100.00,North,-999,-999.0,-999.0,100,-99.99,,,1.25,,2013-07-16 15:01:00,
2013-07-16 10:21:00,72.0,72.0,-100.00,North,-999,-999.0,-999.0,100,0.01,,,1.20,,2013-07-16 15:21:00,
2013-07-16 10:32:00,72.0,72.0,-100.00,North,-999,-999.0,-999.0,100,0.01,,,1.20,,2013-07-16 15:32:00,
2013-07-16 10:53:00,75.0,75.0,-100.00,North,-999,-999.0,-999.0,98,0.01,,,1.04,,2013-07-16 15:53:00,
2013-07-16 11:01:00,77.0,73.0,-100.00,North,-999,-999.0,-999.0,88,0.00,,,0.92,,2013-07-16 16:01:00,
2013-07-16 11:21:00,78.0,72.0,-100.00,North,-999,-999.0,-999.0,82,0.00,,,0.77,,2013-07-16 16:21:00,
2013-07-16 11:32:00,77.0,72.0,-100.00,North,-999,-999.0,-999.0,84,0.00,,,0.36,,2013-07-16 16:32:00,
2013-07-16 11:52:00,78.0,72.0,-100.00,North,-999,-999.0,-999.0,83,0.00,,,0.36,,2013-07-16 16:52:00,
2013-07-16 12:02:00,79.0,71.0,-100.00,North,-999,-999.0,-999.0,75,0.00,,,0.36,,2013-07-16 17:02:00,
2013-07-16 12:22:00,79.0,71.0,-100.00,North,-999,-999.0,-999.0,77,0.00,,,0.36,,2013-07-16 17:22:00,
2013-07-16 12:53:00,79.0,70.0,-100.00,North,-999,-999.0,-999.0,72,0.00,,,0.24,,2013-07-16 17:53:00,
2013-07-16 13:01:00,81.0,70.0,-100.00,North,-999,-999.0,-999.0,70,0.00,,,0.18,,2013-07-16 18:01:00,
2013-07-16 13:11:00,81.0,70.0,-100.00,North,-999,-999.0,-999.0,70,0.00,,,0.18,,2013-07-16 18:11:00,
2013-07-16 13:22:00,81.0,70.0,-100.00,North,-999,-999.0,-999.0,70,0.00,,,0.18,,2013-07-16 18:22:00,
2013-07-16 13:32:00,81.0,70.0,-100.00,North,-999,-999.0,-999.0,70,0.00,,,0.18,,2013-07-16 18:32:00,
2013-07-16 13:53:00,81.0,69.0,-100.00,North,-999,-999.0,-999.0,67,0.00,,,0.10,,2013-07-16 18:53:00,
2013-07-16 14:01:00,82.0,69.0,-100.00,North,-999,-999.0,-999.0,65,0.00,,,0.10,,2013-07-16 19:01:00,
2013-07-16 14:22:00,82.0,69.0,-100.00,North,-999,-999.0,-999.0,65,-99.99,,,-99.99,,2013-07-16 19:22:00,
2013-07-16 14:32:00,82.0,69.0,-100.00,North,-999,-999.0,-999.0,65,-99.99,,,-99.99,,2013-07-16 19:32:00,
2013-07-16 14:52:00,83.0,69.0,-100.00,North,-999,-999.0,-999.0,62,0.00,,,0.09,,2013-07-16 19:52:00,
2013-07-16 15:03:00,83.0,69.0,-100.00,North,-999,-999.0,-999.0,62,0.00,,,0.09,,2013-07-16 20:03:00,
2013-07-16 15:22:00,84.0,69.0,-100.00,North,-999,-999.0,-999.0,60,0.00,,,0.09,,2013-07-16 20:22:00,
2013-07-16 15:32:00,84.0,68.0,-100.00,North,-999,-999.0,-999.0,59,0.00,,,0.09,,2013-07-16 20:32:00,
2013-07-16 15:43:00,84.0,68.0,-100.00,North,-999,-999.0,-999.0,59,0.00,,,0.09,,2013-07-16 20:43:00,
2013-07-16 15:52:00,85.0,68.0,-100.00,North,-999,-999.0,-999.0,57,0.00,,,0.08,,2013-07-16 20:52:00,
2013-07-16 16:22:00,84.0,68.0,-100.00,North,-999,-999.0,-999.0,59,0.00,,,0.08,,2013-07-16 21:22:00,
2013-07-16 16:43:00,82.0,67.0,-100.00,North,-999,-999.0,-999.0,61,0.00,,,0.08,,2013-07-16 21:43:00,
2013-07-16 16:52:00,82.0,67.0,-100.00,North,-999,-999.0,-999.0,61,0.00,,,0.08,,2013-07-16 21:52:00,
2013-07-16 17:01:00,80.0,68.0,-100.00,North,-999,-999.0,-999.0,66,0.00,,,0.08,,2013-07-16 22:01:00,
2013-07-16 17:22:00,81.0,68.0,-100.00,North,-999,-999.0,-999.0,65,0.00,,,0.08,,2013-07-16 22:22:00,
2013-07-16 17:33:00,81.0,68.0,-100.00,North,-999,-999.0,-999.0,65,0.00,,,0.08,,2013-07-16 22:33:00,
2013-07-16 17:52:00,81.0,68.0,-100.00,North,-999,-999.0,-999.0,64,0.00,,,0.08,,2013-07-16 22:52:00,
2013-07-16 18:01:00,81.0,68.0,-100.00,North,-999,-999.0,-999.0,65,0.00,,,0.08,,2013-07-16 23:01:00,
2013-07-16 18:22:00,81.0,68.0,-100.00,North,-999,-999.0,-999.0,65,0.00,,,0.08,,2013-07-16 23:22:00,
2013-07-16 18:32:00,81.0,69.0,-100.00,North,-999,-999.0,-999.0,68,0.00,,,0.08,,2013-07-16 23:32:00,
2013-07-16 18:52:00,80.0,71.0,-100.00,North,-999,-999.0,-999.0,75,0.00,,,0.08,,2013-07-16 23:52:00,
2013-07-16 19:01:00,78.0,72.0,-100.00,North,-999,-999.0,-999.0,81,0.00,,,0.08,,2013-07-17 00:01:00,
2013-07-16 19:22:00,77.0,72.0,-100.00,North,-999,-999.0,-999.0,84,0.01,,,0.09,,2013-07-17 00:22:00,
2013-07-16 19:33:00,75.0,73.0,-100.00,North,-999,-999.0,-999.0,96,0.04,,,0.11,,2013-07-17 00:33:00,
2013-07-16 19:52:00,74.0,74.0,-100.00,North,-999,-999.0,-999.0,98,0.04,,,0.11,,2013-07-17 00:52:00,
2013-07-16 20:01:00,75.0,73.0,-100.00,North,-999,-999.0,-999.0,94,0.04,,,0.11,,2013-07-17 01:01:00,
2013-07-16 20:22:00,76.0,74.0,-100.00,North,-999,-999.0,-999.0,94,0.03,,,0.11,,2013-07-17 01:22:00,
2013-07-16 20:32:00,76.0,73.0,-100.00,North,-999,-999.0,-999.0,92,0.00,,,0.11,,2013-07-17 01:32:00,
2013-07-16 20:52:00,75.0,73.0,-100.00,North,-999,-999.0,-999.0,94,0.00,,,0.11,,2013-07-17 01:52:00,
2013-07-16 21:01:00,72.0,71.0,-100.00,North,-999,-999.0,-999.0,96,0.00,,,0.11,,2013-07-17 02:01:00,
2013-07-16 21:22:00,71.0,71.0,-100.00,North,-999,-999.0,-999.0,100,0.02,,,0.13,,2013-07-17 02:22:00,
2013-07-16 21:32:00,71.0,71.0,-100.00,North,-999,-999.0,-999.0,100,0.02,,,0.13,,2013-07-17 02:32:00,
2013-07-16 21:53:00,71.0,71.0,-100.00,North,-999,-999.0,-999.0,100,0.02,,,0.13,,2013-07-17 02:53:00,
2013-07-16 22:01:00,71.0,71.0,-100.00,North,-999,-999.0,-999.0,100,0.02,,,0.13,,2013-07-17 03:01:00,
2013-07-16 22:22:00,71.0,71.0,-100.00,North,-999,-999.0,-999.0,100,0.00,,,-99.99,,2013-07-17 03:22:00,
2013-07-16 22:32:00,71.0,71.0,-100.00,North,-999,-999.0,-999.0,100,0.00,,,0.13,,2013-07-17 03:32:00,
2013-07-16 22:53:00,71.0,71.0,-100.00,North,-999,-999.0,-999.0,100,0.00,,,0.13,,2013-07-17 03:53:00,
2013-07-16 23:01:00,71.0,71.0,-100.00,North,-999,-999.0,-999.0,100,0.00,,,0.13,,2013-07-17 04:01:00,
2013-07-16 23:22:00,70.0,70.0,-100.00,North,-999,-999.0,-999.0,100,0.00,,,-99.99,,2013-07-17 04:22:00,
2013-07-16 23:32:00,70.0,70.0,-100.00,North,-999,-999.0,-999.0,100,0.00,,,0.13,,2013-07-17 04:32:00,
2013-07-16 23:53:00,70.0,70.0,-100.00,North,-999,-999.0,-999.0,100,0.00,,,0.13,,2013-07-17 04:53:00,